User: anonymous
Location: Los Gatos B&B
(42.6926°N, 77.0646°W)
Time: 11:06:48
(UTC-04:00)
Language:

SL-16 R/B - Orbit

View from above orbital plane
View from above orbital plane
View from above satellite
View from above satellite

Ground track
Ground track

The orbit data is extracted from the following two-line orbital elements,

1 28353U 04021B   14293.48198723  .00000393  00000-0  23140-3 0  8659
2 28353 071.0007 314.0627 0006710 245.1203 217.4933 14.14088493534937
Epoch (UTC): 20 October 2014 11:34:03
Eccentricity: 0.0006710
inclination: 71.0007°
perigee height: 840 km
apogee height: 850 km
right ascension of ascending node: 314.0627°
argument of perigee: 245.1203°
revolutions per day: 14.14088493
mean anomaly at epoch: 217.4933°
orbit number at epoch: 53493

The dashed part of the orbit path shows where the satellite is in the earth's shadow,  

DLR